[[{"header":{"parameterUnit":"m.s-1","parameterCategory":1,"la1":30.2991,"la2":30.254,"lo1":-89.0895,"lo2":-89.0444,"dy":0.0017,"dx":0.0017,"nx":28,"ny":28,"refTime":"2024-05-25T03:00:00:Z","depth":0,"parameterNumber":2,"parameterNumberName":"U-component_of_WINDS"},"data":[0,0,0,0,0,0,0,0,0,0,0,0,0,0,0,0,0,0,0,0,0,0,0,0,0,0,0,0,0,0,0,0,0,0,0,0,0,0,0,0,0,0,0,0,0,0,0,0,0,0,0,0,0,0,0,0,0,0,1.2224,1.2224,0,1.2279,1.228,1.2281,1.2269,1.2267,1.2266,1.2265,1.2324,1.2327,1.2329,0,0,0,0,0,0,0,0,0,0,0,0,0,1.2107,1.2109,1.2224,1.2224,1.2225,1.2279,1.228,1.2281,1.2269,1.2267,1.2266,1.2265,1.2324,1.2327,1.233,0,0,0,0,0,0,0,0,0,0,0,0,0,1.216,1.211,1.2224,1.2225,1.2226,1.2279,1.228,1.2281,1.2269,1.2267,1.2266,1.2264,1.2323,1.2326,1.233,1.2385,0,0,1.2342,1.2343,0,0,0,0,0,0,0,0,1.2157,1.2164,1.2224,1.2225,1.2226,1.2265,1.2261,1.2316,1.2269,1.2253,1.2265,1.2264,1.2306,1.2311,1.2325,1.2388,1.239,1.2342,1.2344,1.2346,1.2347,0,0,0,0,0,0,0,1.2153,1.2162,1.2246,1.2225,1.2227,1.2224,1.223,1.2271,1.2288,1.2254,1.2253,1.226,1.2306,1.2322,1.2327,1.2391,1.2342,1.2345,1.2348,1.2349,1.2501,1.2503,0,0,0,0,0,0,1.2149,1.2159,1.2244,1.2247,1.2187,1.2227,1.2234,1.2254,1.2287,1.2291,1.2261,1.2259,1.2316,1.2322,1.2329,1.2394,1.2346,1.235,1.2352,1.2499,1.2501,1.2503,0,0,0,0,0,0,1.2146,1.2156,1.2242,1.2203,1.2214,1.2231,1.2254,1.2256,1.2272,1.2293,1.2296,1.2274,1.2315,1.2323,1.2371,1.2396,1.2351,1.2355,1.2497,1.25,1.2502,1.2527,0,0,0,0,0,0,1.2143,1.2156,1.2177,1.2203,1.2216,1.2283,1.2256,1.2259,1.2278,1.2276,1.2305,1.2308,1.2314,1.2365,1.2375,1.2401,1.2358,1.2495,1.2498,1.2502,1.2524,1.253,1.2535,0,0,0,0,0,1.2139,1.2182,1.2178,1.2188,1.2242,1.2284,1.2291,1.2297,1.228,1.2301,1.2315,1.2307,1.2392,1.237,1.2381,1.2408,1.2493,1.2497,1.2501,1.2521,1.2529,1.2535,0,0,0,0,0,0,1.2158,1.2185,1.2181,1.2234,1.2257,1.2282,1.2309,1.2305,1.2333,1.233,1.2336,1.2343,1.2391,1.2405,1.238,1.2463,1.244,1.2447,1.2452,1.2459,1.2465,1.246,1.2361,0,0,0,0,0,1.2169,1.22,1.2222,1.2267,1.2279,1.2292,1.2311,1.2312,1.2337,1.2346,1.2363,1.2387,1.2419,1.244,1.2471,1.2526,1.2532,1.255,1.2556,1.256,1.2565,1.2595,1.2603,1.2516,1.2516,1.2516,0,0,1.2191,1.2209,1.2229,1.2271,1.2289,1.2322,1.23,1.2336,1.236,1.2352,1.2397,1.2411,1.2438,1.2489,1.2513,1.2502,1.2591,1.2565,1.2569,1.2571,1.2599,1.2608,1.2615,1.2519,1.2518,1.2518,0,0,1.2247,1.2265,1.2303,1.2321,1.2348,1.2356,1.2366,1.2392,1.24,1.2445,1.244,1.2469,1.2524,1.2543,1.256,1.2623,1.2617,1.2633,1.2662,1.2691,1.2697,1.2703,1.2725,1.2733,1.2638,1.2638,1.2638,0,1.2271,1.2319,1.2324,1.2359,1.2378,1.2371,1.241,1.2428,1.2464,1.2477,1.2464,1.2532,1.255,1.2605,1.262,1.2635,1.2645,1.2629,1.2696,1.2702,1.2708,1.2728,1.2737,1.264,1.264,1.2639,1.2639,0,1.2347,1.238,1.2408,1.2442,1.2464,1.2501,1.2511,1.2533,1.2533,1.2542,1.2589,1.261,1.2644,1.2658,1.2659,1.2713,1.2705,1.2694,1.2672,1.2718,1.2737,1.2745,1.2642,1.2641,1.2641,1.2641,0,0,1.2417,1.2452,1.2462,1.2476,1.2505,1.2532,1.2569,1.2601,1.2619,1.2644,1.2675,1.2721,1.2711,1.273,1.2733,1.2759,1.2806,1.2745,1.2745,1.2754,1.2866,1.2873,1.2882,1.2802,1.2804,1.2805,1.2863,0,1.2475,1.2539,1.2543,1.2601,1.2632,1.2626,1.2658,1.2679,1.2689,1.2717,1.2729,1.2761,1.2745,1.2757,1.2781,1.2795,1.2828,1.2791,1.283,1.2832,1.2823,1.2892,1.29,1.2954,1.2871,1.2872,1.2873,0,1.2551,1.2577,1.2638,1.2661,1.2674,1.2703,1.2733,1.2759,1.2783,1.2789,1.281,1.2809,1.2847,1.2824,1.2876,1.285,1.2867,1.2876,1.2878,1.2881,1.2855,1.2896,1.2971,1.2979,1.2885,1.2884,1.2883,0,1.2595,1.2645,1.2687,1.2701,1.273,1.2749,1.2763,1.2785,1.2804,1.283,1.2843,1.2874,1.289,1.2914,1.2922,1.2904,1.2973,1.2951,1.2979,1.2979,1.2993,1.2992,1.3071,1.3005,1.3005,1.3005,1.3005,0,1.2658,1.2695,1.2707,1.2733,1.2775,1.278,1.282,1.2833,1.2852,1.2881,1.2878,1.2905,1.2914,1.2942,1.2948,1.299,1.2998,1.3003,1.3004,1.3003,1.3002,1.3013,1.301,1.3007,1.3007,1.3006,1.3006,0,1.2714,1.2723,1.2769,1.2792,1.2799,1.2828,1.2848,1.2873,1.2883,1.2919,1.2927,1.2942,1.2975,1.2986,1.3026,1.303,1.3079,1.3077,1.307,1.307,1.3097,1.3094,1.3185,1.3197,1.3125,1.3125,1.3126,0,1.2753,1.2781,1.2807,1.2826,1.2839,1.2869,1.2888,1.2895,1.2915,1.2943,1.2965,1.2998,1.3024,1.3077,1.3092,1.3122,1.3121,1.3151,1.3126,1.3123,1.312,1.3118,1.312,1.3155,1.3156,1.3157,1.3157,0,1.2822,1.2825,1.2852,1.2881,1.2904,1.2927,1.2949,1.2965,1.2974,1.2997,1.303,1.305,1.3091,1.3123,1.3154,1.3168,1.3164,1.3165,1.3173,1.3171,1.3166,1.3168,1.3082,1.3163,1.3162,1.3162,1.3161,1.3161,1.287,1.2894,1.2916,1.2946,1.2964,1.2984,1.3009,1.3021,1.3048,1.3081,1.3083,1.3119,1.3142,1.3183,1.3198,1.3227,1.3218,1.323,1.3233,1.3235,1.3237,1.3162,1.3233,1.3232,1.3232,1.3232,1.3232,0,1.2938,1.2951,1.2979,1.301,1.3033,1.3027,1.3051,1.3072,1.3103,1.3124,1.315,1.3188,1.3219,1.3236,1.3267,1.3286,1.3285,1.3294,1.3292,1.3295,1.3243,1.3233,1.3294,1.3294,1.3294,1.3294,1.3294,1.3294,1.2976,1.3016,1.3022,1.307,1.3084,1.3118,1.3132,1.3152,1.3168,1.3211,1.3236,1.3246,1.3266,1.3298,1.3327,1.3331,1.3342,1.3352,1.3355,1.3306,1.3299,1.3293,1.3283,1.3354,1.3354,1.3404,1.3405,1.3405]},{"header":{"parameterUnit":"m.s-1","parameterCategory":1,"la1":30.2991,"la2":30.254,"lo1":-89.0895,"lo2":-89.0444,"dy":0.0017,"dx":0.0017,"nx":28,"ny":28,"refTime":"2024-05-25T03:00:00:Z","depth":0,"parameterNumber":3,"parameterNumberName":"V-component_of_WINDS"},"data":[0,0,0,0,0,0,0,0,0,0,0,0,0,0,0,0,0,0,0,0,0,0,0,0,0,0,0,0,0,0,0,0,0,0,0,0,0,0,0,0,0,0,0,0,0,0,0,0,0,0,0,0,0,0,0,0,0,0,3.4224,3.4224,0,3.4232,3.4232,3.4233,3.4195,3.4194,3.4193,3.4192,3.4198,3.4199,3.4201,0,0,0,0,0,0,0,0,0,0,0,0,0,3.4175,3.4176,3.4224,3.4224,3.4225,3.4232,3.4232,3.4233,3.4195,3.4194,3.4193,3.4191,3.4198,3.4199,3.4201,0,0,0,0,0,0,0,0,0,0,0,0,0,3.4191,3.4176,3.4224,3.4207,3.4205,3.4232,3.4232,3.4233,3.4196,3.4194,3.4192,3.4191,3.4197,3.4199,3.4201,3.4244,0,0,3.4206,3.4207,0,0,0,0,0,0,0,0,3.419,3.4193,3.4209,3.4208,3.4207,3.4211,3.4217,3.4236,3.4196,3.4199,3.4192,3.419,3.4204,3.4205,3.421,3.4245,3.4245,3.4206,3.4207,3.4208,3.4209,0,0,0,0,0,0,0,3.4189,3.4192,3.4227,3.421,3.4208,3.4198,3.4199,3.4221,3.421,3.4199,3.4196,3.4198,3.4203,3.4208,3.421,3.4245,3.4206,3.4208,3.4209,3.421,3.4315,3.4317,0,0,0,0,0,0,3.419,3.4191,3.4227,3.4228,3.4194,3.42,3.4201,3.4211,3.421,3.4208,3.4199,3.4196,3.4206,3.4208,3.421,3.426,3.4208,3.421,3.4211,3.4314,3.4316,3.4318,0,0,0,0,0,0,3.4189,3.4194,3.4227,3.4209,3.4212,3.4203,3.4215,3.4212,3.4218,3.421,3.4208,3.4207,3.4205,3.4207,3.4236,3.426,3.4211,3.4212,3.4312,3.4314,3.4317,3.4362,0,0,0,0,0,0,3.4188,3.4194,3.4211,3.421,3.4213,3.4254,3.4216,3.4214,3.4221,3.4217,3.4217,3.4215,3.4204,3.4234,3.4238,3.4262,3.4214,3.4309,3.4313,3.4316,3.4358,3.4366,3.4372,0,0,0,0,0,3.4187,3.4222,3.4212,3.4216,3.4234,3.4255,3.4257,3.4244,3.4223,3.424,3.4235,3.4215,3.4257,3.4237,3.4241,3.4266,3.4308,3.4312,3.4316,3.4355,3.4364,3.4372,0,0,0,0,0,0,3.4226,3.4222,3.421,3.4247,3.4252,3.4249,3.4269,3.4254,3.4264,3.426,3.4242,3.4242,3.4274,3.4273,3.425,3.4308,3.4279,3.4284,3.4307,3.4316,3.4323,3.4322,3.4215,0,0,0,0,0,3.4239,3.4257,3.4252,3.4285,3.4288,3.4278,3.4287,3.4276,3.428,3.4282,3.4279,3.4283,3.4297,3.4306,3.4319,3.4358,3.4357,3.4377,3.4384,3.439,3.4394,3.4415,3.4424,3.4331,3.4331,3.4331,0,0,3.4265,3.4266,3.4278,3.4293,3.4295,3.4314,3.428,3.4301,3.4314,3.4285,3.4312,3.431,3.4313,3.4348,3.4363,3.4348,3.442,3.4395,3.44,3.4401,3.442,3.4429,3.4437,3.4333,3.4333,3.4332,0,0,3.4323,3.4326,3.4353,3.4357,3.4362,3.4355,3.4362,3.4361,3.4359,3.4386,3.4365,3.438,3.4404,3.4408,3.4413,3.4473,3.4455,3.4478,3.4514,3.4534,3.4541,3.4548,3.4569,3.4577,3.4482,3.4482,3.4482,0,3.4356,3.4383,3.4369,3.4392,3.4399,3.4374,3.4402,3.4405,3.4414,3.4419,3.4402,3.4433,3.4433,3.4468,3.4483,3.4488,3.4495,3.4477,3.4542,3.4548,3.4554,3.4574,3.4582,3.4485,3.4484,3.4484,3.4484,0,3.4423,3.4442,3.4464,3.4473,3.4483,3.4508,3.4497,3.4508,3.4497,3.4492,3.452,3.452,3.4532,3.454,3.4528,3.4573,3.4564,3.4545,3.4515,3.4565,3.4584,3.4591,3.4489,3.4488,3.4487,3.4486,0,0,3.4504,3.4507,3.4515,3.4519,3.4523,3.4537,3.4561,3.4574,3.4583,3.459,3.4609,3.4631,3.4614,3.4619,3.4608,3.4626,3.4674,3.4605,3.4605,3.4618,3.4723,3.4736,3.4745,3.4663,3.4664,3.4665,3.4722,0,3.4561,3.4602,3.4591,3.4632,3.465,3.4627,3.4647,3.4652,3.4648,3.4662,3.4657,3.4673,3.4649,3.4652,3.4669,3.4665,3.4695,3.466,3.4679,3.468,3.4679,3.4755,3.477,3.4823,3.4729,3.4731,3.4731,0,3.4632,3.4643,3.4686,3.4687,3.4694,3.4713,3.4724,3.4738,3.4742,3.4738,3.4745,3.473,3.4753,3.4724,3.4755,3.4732,3.4739,3.4738,3.474,3.4741,3.4708,3.4757,3.484,3.4848,3.4743,3.4742,3.4741,0,3.4687,3.4712,3.4741,3.4746,3.4748,3.4762,3.4763,3.4766,3.4774,3.4784,3.4789,3.48,3.4807,3.4816,3.4805,3.4785,3.4837,3.4807,3.4834,3.4834,3.4846,3.4845,3.493,3.4851,3.4851,3.4851,3.4851,0,3.4751,3.4778,3.4766,3.4784,3.4814,3.48,3.483,3.4828,3.4831,3.4848,3.4829,3.4845,3.483,3.4844,3.4836,3.4863,3.4865,3.4862,3.486,3.4864,3.4864,3.4868,3.4864,3.4853,3.4853,3.4852,3.4852,0,3.4817,3.481,3.484,3.484,3.4841,3.4863,3.4863,3.4879,3.4874,3.4896,3.49,3.4892,3.4908,3.4898,3.4915,3.4909,3.4944,3.4936,3.4943,3.494,3.4967,3.4965,3.5058,3.5069,3.4983,3.4984,3.4985,0,3.4858,3.4879,3.4881,3.4892,3.4895,3.4912,3.492,3.4908,3.4918,3.4925,3.494,3.4955,3.4966,3.4993,3.4988,3.5001,3.4993,3.5024,3.4994,3.4998,3.4993,3.4991,3.4993,3.503,3.5031,3.5032,3.5033,0,3.4931,3.4927,3.4941,3.4954,3.4966,3.4975,3.4983,3.4992,3.498,3.4992,3.5009,3.5017,3.5034,3.5049,3.506,3.506,3.5045,3.5043,3.5049,3.5053,3.5056,3.5055,3.4959,3.504,3.5039,3.5039,3.5038,3.5038,3.4986,3.5003,3.5008,3.5024,3.5029,3.5037,3.5052,3.505,3.5064,3.5077,3.5069,3.5089,3.5093,3.5106,3.5109,3.5124,3.5111,3.512,3.5123,3.5125,3.5129,3.5054,3.5125,3.5125,3.5125,3.5125,3.5125,0,3.5058,3.506,3.5075,3.5087,3.51,3.5085,3.5093,3.5105,3.5123,3.5128,3.514,3.5159,3.5174,3.5171,3.5183,3.5196,3.5189,3.52,3.5198,3.5199,3.514,3.5133,3.5205,3.5205,3.5205,3.5205,3.5205,3.5205,3.5096,3.5125,3.5122,3.5152,3.5154,3.5174,3.518,3.5187,3.5191,3.5214,3.5226,3.5225,3.5227,3.524,3.5252,3.5251,3.5256,3.527,3.5266,3.5211,3.5203,3.5195,3.5188,3.5271,3.5271,3.5323,3.5324,3.5324]}]]